This demonstration page uses our WeatherBlox Daily Observations layout. Learn more.

Left ArrowRight Arrow

38.80484, -77.04692

Hourly Observations for October 18, 2019

Temp ( °F °C ) Dew Point ( °F °C ) Humidity (%) Winds ( mph kmh ) Pressure ( in mb ) Visibility ( mi km ) Precip ( " mm )
12:52 am 00:52 Clear 52 11.1 33 0.6 49 49 NW 6 9 29.86 1011 10 16 0.00 0.00
1:52 am 01:52 Clear 50 10 33 0.6 52 52 NW 6 9 29.86 1011 10 16 0.00 0.00
2:52 am 02:52 Clear 50 10 34 1.1 54 54 NNW 8 13 29.86 1011 10 16 0.00 0.00
3:52 am 03:52 Mostly Clear 49 9.4 35 1.7 59 59 NW 8 13 29.87 1012 10 16 0.00 0.00
4:52 am 04:52 Mostly Clear 48 8.9 35 1.7 61 61 NNW 5 7 29.89 1012 10 16 0.00 0.00
5:52 am 05:52 Partly Cloudy 48 8.9 35 1.7 61 61 WNW 8 13 29.91 1013 10 16 0.00 0.00
6:52 am 06:52 Clear 49 9.4 36 2.2 61 61 WNW 8 13 29.93 1014 10 16 0.00 0.00
7:52 am 07:52 Mostly Sunny 50 10 36 2.2 59 59 WNW 6 9 29.94 1014 10 16 0.00 0.00
8:52 am 08:52 Mostly Sunny 52 11.1 36 2.2 55 55 WNW 9 15 29.97 1015 10 16 0.00 0.00
9:52 am 09:52 Partly Cloudy 55 12.8 37 2.8 51 51 NNW 12 19 29.98 1015 10 16 0.00 0.00
10:52 am 10:52 Partly Cloudy 57 13.9 36 2.2 45 45 NW 18 30 29.98 1015 10 16 0.00 0.00
11:52 am 11:52 Partly Cloudy 60 15.6 36 2.2 41 41 NW 16 26 29.98 1015 10 16 0.00 0.00
12:52 pm 12:52 Partly Cloudy 62 16.7 36 2.2 38 38 NNW 21 33 29.98 1015 10 16 0.00 0.00
1:52 pm 13:52 Mostly Sunny 63 17.2 35 1.7 35 35 WNW 16 26 29.97 1015 10 16 0.00 0.00
2:52 pm 14:52 Mostly Sunny 65 18.3 35 1.7 33 33 NW 15 24 29.96 1015 10 16 0.00 0.00
3:52 pm 15:52 Sunny 65 18.3 36 2.2 34 34 NW 15 24 29.96 1015 10 16 0.00 0.00
4:52 pm 16:52 Sunny 64 17.8 35 1.7 34 34 NW 12 19 29.97 1015 10 16 0.00 0.00
5:52 pm 17:52 Mostly Sunny 62 16.7 35 1.7 37 37 NW 12 19 29.99 1016 10 16 0.00 0.00
6:52 pm 18:52 Mostly Clear 60 15.6 36 2.2 41 41 NW 9 15 30.01 1016 10 16 0.00 0.00
7:52 pm 19:52 Clear 59 15 36 2.2 42 42 WNW 8 13 30.05 1018 10 16 0.00 0.00
8:52 pm 20:52 Clear 57 13.9 37 2.8 47 47 NW 12 19 30.06 1018 10 16 0.00 0.00
9:52 pm 21:52 Clear 55 12.8 38 3.3 53 53 NNW 10 17 30.06 1018 10 16 0.00 0.00
10:52 pm 22:52 Clear 52 11.1 39 3.9 61 61 NNW 8 13 30.06 1018 10 16 0.00 0.00
11:52 pm 23:52 Clear 52 11.1 38 3.3 59 59 NNW 8 13 30.06 1018 10 16 0.00 0.00

Powered by AerisWeather